KI5RKU-09 Weather Reports


Display with metric or nautical units.
time (UTC)temp
F
wind
direction
speed
MPH
gust
MPH
rain 1hr
in
rain 24hr
in
rain mn
in
humidity
%
barometer
mb
20260506014026 73 355 5.0 12.0 0.00 0.00 0.00 67 1007.4
20260506013529 73 352 4.0 11.0 0.00 0.00 0.00 66 1007.1
20260506013059 73 341 7.0 11.0 0.00 0.00 0.00 66 1007.3
20260506012527 73 19 4.0 11.0 0.00 0.00 0.00 66 1007.2
20260506012028 73 328 6.0 12.0 0.00 0.00 0.00 65 1007.2
20260506011542 74 355 5.0 12.0 0.00 0.00 0.00 65 1007.3
20260506011029 74 312 4.0 13.0 0.00 0.00 0.00 65 1007.1
20260506010528 74 346 6.0 13.0 0.00 0.00 0.00 65 1006.7
20260506010037 74 317 5.0 12.0 0.00 0.00 0.00 65 1006.8
20260506005527 74 337 4.0 11.0 0.00 0.00 0.00 64 1006.6
20260506005027 75 355 3.0 12.0 0.00 0.00 0.00 64 1006.1
20260506004542 75 306 6.0 12.0 0.00 0.00 0.00 64 1006.5
20260506004027 75 352 5.0 11.0 0.00 0.00 0.00 64 1006.6
20260506003529 75 342 6.0 14.0 0.00 0.00 0.00 64 1006.5
20260506003042 76 350 6.0 14.0 0.00 0.00 0.00 63 1006.6
20260506002528 76 360 4.0 13.0 0.00 0.00 0.00 63 1006.4
20260506002028 77 339 6.0 13.0 0.00 0.00 0.00 62 1006.4
20260506001545 78 352 6.0 15.0 0.00 0.00 0.00 62 1006.4
20260506001028 78 342 3.0 15.0 0.00 0.00 0.00 61 1006.3
20260506000527 79 352 4.0 16.0 0.00 0.00 0.00 60 1006.2
20260506000043 80 286 9.0 16.0 0.00 0.00 0.00 59 1005.8
20260505235526 80 348 4.0 12.0 0.00 0.00 0.00 59 1005.6
20260505235026 80 339 6.0 15.0 0.00 0.00 0.00 59 1005.6
20260505234541 81 327 6.0 15.0 0.00 0.00 0.00 58 1005.6
20260505234028 81 333 6.0 14.0 0.00 0.00 0.00 57 1005.6
20260505233528 82 339 6.0 13.0 0.00 0.00 0.00 56 1005.7
20260505233044 83 338 4.0 20.0 0.00 0.00 0.00 56 1005.7
20260505232527 84 304 7.0 20.0 0.00 0.00 0.00 54 1005.6
20260505232028 85 339 6.0 12.0 0.00 0.00 0.00 51 1005.4
20260505231544 86 315 4.0 10.0 0.00 0.00 0.00 49 1005.3
20260505231032 86 296 4.0 11.0 0.00 0.00 0.00 48 1005.2
20260505230528 86 310 5.0 12.0 0.00 0.00 0.00 47 1005.2
20260505230055 87 337 4.0 12.0 0.00 0.00 0.00 47 1005.1
20260505225528 88 360 4.0 11.0 0.00 0.00 0.00 47 1004.8
20260505225028 88 321 4.0 13.0 0.00 0.00 0.00 46 1004.9
20260505224541 89 292 3.0 13.0 0.00 0.00 0.00 48 1004.8
20260505224027 89 270 6.0 13.0 0.00 0.00 0.00 47 1004.8
20260505223527 89 246 4.0 8.0 0.00 0.00 0.00 50 1004.8
20260505223053 89 227 3.0 8.0 0.00 0.00 0.00 51 1004.5
20260505222531 89 204 2.0 8.0 0.00 0.00 0.00 50 1004.5
20260505222028 89 0 1.0 10.0 0.00 0.00 0.00 51 1004.4
20260505221542 89 262 4.0 10.0 0.00 0.00 0.00 50 1004.4
20260505221027 89 238 3.0 11.0 0.00 0.00 0.00 50 1004.4
20260505220526 90 159 3.0 11.0 0.00 0.00 0.00 51 1004.3
20260505220045 89 167 5.0 11.0 0.00 0.00 0.00 49 1004.4
20260505215528 90 209 4.0 15.0 0.00 0.00 0.00 49 1004.5
20260505215028 90 211 5.0 15.0 0.00 0.00 0.00 51 1004.6
20260505214541 90 236 4.0 12.0 0.00 0.00 0.00 50 1004.6
20260505214026 90 190 4.0 12.0 0.00 0.00 0.00 49 1004.5
20260505213527 90 226 4.0 11.0 0.00 0.00 0.00 50 1004.6
20260505213051 90 205 5.0 14.0 0.00 0.00 0.00 50 1004.7
20260505212531 90 232 5.0 14.0 0.00 0.00 0.00 50 1004.8
20260505212028 90 221 6.0 14.0 0.00 0.00 0.00 51 1004.7
20260505211542 90 214 6.0 12.0 0.00 0.00 0.00 51 1004.9
20260505211028 90 184 5.0 15.0 0.00 0.00 0.00 49 1004.9
20260505210527 90 211 6.0 15.0 0.00 0.00 0.00 51 1005.1
20260505210041 90 236 6.0 15.0 0.00 0.00 0.00 52 1004.9
20260505205528 89 185 7.0 16.0 0.00 0.00 0.00 51 1005.0
20260505205028 89 262 6.0 17.0 0.00 0.00 0.00 52 1005.0
20260505204542 89 215 9.0 17.0 0.00 0.00 0.00 52 1005.3
20260505204032 90 197 6.0 16.0 0.00 0.00 0.00 52 1005.2
20260505203527 91 217 7.0 16.0 0.00 0.00 0.00 51 1005.3
20260505203047 90 250 5.0 16.0 0.00 0.00 0.00 52 1005.4
20260505202529 89 280 3.0 16.0 0.00 0.00 0.00 54 1005.4
20260505202026 88 221 8.0 16.0 0.00 0.00 0.00 57 1005.4
20260505201537 89 227 6.0 16.0 0.00 0.00 0.00 57 1005.4
20260505201029 88 252 7.0 18.0 0.00 0.00 0.00 59 1005.4
20260505200528 87 188 11.0 18.0 0.00 0.00 0.00 58 1005.4
20260505200042 87 212 6.0 18.0 0.00 0.00 0.00 57 1005.5
20260505195527 88 170 6.0 18.0 0.00 0.00 0.00 58 1005.6
20260505195027 88 159 4.0 15.0 0.00 0.00 0.00 58 1005.6
20260505194547 87 171 6.0 20.0 0.00 0.00 0.00 59 1005.5
20260505194031 86 184 10.0 20.0 0.00 0.00 0.00 60 1005.6
20260505193527 85 360 9.0 18.0 0.00 0.00 0.00 61 1005.6
20260505193042 85 360 10.0 18.0 0.00 0.00 0.00 61 1005.6
20260505192529 85 207 8.0 19.0 0.00 0.00 0.00 61 1005.6
20260505192026 85 234 9.0 19.0 0.00 0.00 0.00 62 1005.7
20260505191540 84 217 6.0 21.0 0.00 0.00 0.00 64 1005.6
20260505191026 84 360 10.0 22.0 0.00 0.00 0.00 63 1005.6
20260505190532 84 360 8.0 22.0 0.00 0.00 0.00 64 1005.6
20260505190038 83 360 10.0 17.0 0.00 0.00 0.00 64 1005.6
20260505185529 83 227 8.0 19.0 0.00 0.00 0.00 64 1005.8
20260505185028 82 360 9.0 19.0 0.00 0.00 0.00 66 1005.8
20260505184541 82 256 10.0 17.0 0.00 0.00 0.00 65 1005.9
20260505184027 82 194 10.0 17.0 0.00 0.00 0.00 65 1006.0
20260505183528 82 222 7.0 17.0 0.00 0.00 0.00 66 1005.9
20260505183056 82 360 9.0 23.0 0.00 0.00 0.00 66 1005.9
20260505182527 82 195 12.0 23.0 0.00 0.00 0.00 65 1005.9
20260505182029 82 187 6.0 19.0 0.00 0.00 0.00 66 1005.8
20260505181543 82 209 9.0 16.0 0.00 0.00 0.00 65 1005.9
20260505181025 82 154 6.0 17.0 0.00 0.00 0.00 65 1006.0
20260505180527 82 219 7.0 18.0 0.00 0.00 0.00 66 1005.9
20260505180041 82 209 11.0 21.0 0.00 0.00 0.00 66 1005.9
20260505175528 82 188 8.0 22.0 0.00 0.00 0.00 67 1005.9
20260505175028 82 186 9.0 22.0 0.00 0.00 0.00 67 1005.9
20260505174535 81 178 6.0 18.0 0.00 0.00 0.00 68 1005.9
20260505174027 81 360 10.0 18.0 0.00 0.00 0.00 68 1006.0
20260505173529 81 209 9.0 20.0 0.00 0.00 0.00 69 1005.9
20260505173047 80 360 7.0 23.0 0.00 0.00 0.00 70 1005.9
20260505172526 79 185 13.0 23.0 0.00 0.00 0.00 70 1006.0
20260505172027 80 215 10.0 22.0 0.00 0.00 0.00 70 1006.1
20260505171543 79 131 10.0 22.0 0.00 0.00 0.00 70 1006.0
20260505171031 79 239 10.0 25.0 0.00 0.00 0.00 71 1006.1
20260505170528 79 187 12.0 25.0 0.00 0.00 0.00 71 1006.1
20260505170042 78 360 12.0 23.0 0.00 0.00 0.00 71 1006.1
20260505165527 78 360 9.0 22.0 0.00 0.00 0.00 72 1006.1
20260505165028 78 201 12.0 22.0 0.00 0.00 0.00 71 1006.1
20260505164556 78 360 9.0 21.0 0.00 0.00 0.00 72 1006.0
20260505164028 78 208 10.0 21.0 0.00 0.00 0.00 72 1005.9
20260505163528 78 209 11.0 23.0 0.00 0.00 0.00 72 1005.9
20260505163051 78 168 12.0 24.0 0.00 0.00 0.00 72 1005.9
20260505162526 77 222 13.0 24.0 0.00 0.00 0.00 72 1005.8
20260505162027 77 194 9.0 21.0 0.00 0.00 0.00 72 1005.8
20260505161544 77 201 10.0 26.0 0.00 0.00 0.00 73 1005.8
20260505161025 77 219 12.0 26.0 0.00 0.00 0.00 73 1005.9
20260505160525 77 183 12.0 25.0 0.00 0.00 0.00 73 1005.8
20260505153053 75 257 12.0 31.0 0.00 0.00 0.00 76 1005.5
20260505152527 75 228 16.0 31.0 0.00 0.00 0.00 76 1005.6
20260505152028 75 170 8.0 28.0 0.00 0.00 0.00 76 1005.7
20260505151553 75 204 15.0 28.0 0.00 0.00 0.00 77 1005.8
20260505151026 74 215 12.0 26.0 0.00 0.00 0.00 77 1005.9
20260505150527 74 193 13.0 26.0 0.00 0.00 0.00 77 1005.8
20260505140527 73 190 10.0 23.0 0.00 0.00 0.00 79 1005.7
20260505125027 71 182 10.0 20.0 0.00 0.00 0.00 82 1005.2
20260505124543 71 360 7.0 24.0 0.00 0.00 0.00 82 1005.2
20260505124029 71 194 12.0 24.0 0.00 0.00 0.00 82 1005.2
20260505123528 71 168 12.0 19.0 0.00 0.00 0.00 82 1005.2
20260505123042 71 360 10.0 24.0 0.00 0.00 0.00 82 1005.1
20260505122528 71 188 10.0 24.0 0.00 0.00 0.00 82 1004.8
20260505122028 71 149 9.0 21.0 0.00 0.00 0.00 82 1004.8
20260505121542 71 178 11.0 22.0 0.00 0.00 0.00 82 1004.9
20260505121029 71 229 11.0 29.0 0.00 0.00 0.00 82 1004.7
20260505120528 71 207 13.0 29.0 0.00 0.00 0.00 82 1004.7
20260505120046 71 211 11.0 27.0 0.00 0.00 0.00 82 1004.8
20260505115529 71 360 10.0 24.0 0.00 0.00 0.00 82 1004.6
20260505115033 71 149 11.0 24.0 0.00 0.00 0.00 81 1004.6
20260505114545 71 199 11.0 24.0 0.00 0.00 0.00 81 1004.6
20260505114028 71 163 6.0 24.0 0.00 0.00 0.00 81 1004.6
20260505113528 71 360 11.0 28.0 0.00 0.00 0.00 81 1004.5
20260505113037 71 185 11.0 28.0 0.00 0.00 0.00 81 1004.5
20260505112529 71 208 8.0 21.0 0.00 0.00 0.00 81 1004.5
20260505112028 71 225 11.0 26.0 0.00 0.00 0.00 81 1004.7
20260505111550 71 182 12.0 26.0 0.00 0.00 0.00 81 1004.4
20260505111029 71 360 9.0 20.0 0.00 0.00 0.00 81 1004.6
20260505110529 71 221 8.0 20.0 0.00 0.00 0.00 81 1004.7
20260505102027 71 203 10.0 23.0 0.00 0.00 0.00 81 1004.4
20260505101538 71 163 14.0 27.0 0.00 0.00 0.00 81 1004.7
20260505101027 71 186 13.0 27.0 0.00 0.00 0.00 81 1004.6
20260505100527 71 213 13.0 28.0 0.00 0.00 0.00 81 1004.6
20260505100042 71 159 10.0 28.0 0.00 0.00 0.00 81 1004.5
20260505095531 71 173 10.0 21.0 0.00 0.00 0.00 81 1004.6
20260505095027 71 184 10.0 23.0 0.00 0.00 0.00 81 1004.6
20260505094542 71 212 10.0 23.0 0.00 0.00 0.00 81 1004.8
20260505094029 71 169 12.0 27.0 0.00 0.00 0.00 81 1004.6
20260505093527 71 147 12.0 27.0 0.00 0.00 0.00 81 1004.7
20260505093042 71 175 11.0 27.0 0.00 0.00 0.00 81 1004.6
20260505092527 71 187 12.0 23.0 0.00 0.00 0.00 81 1004.7
20260505092027 71 178 12.0 26.0 0.00 0.00 0.00 81 1004.8
20260505091554 71 196 9.0 26.0 0.00 0.00 0.00 81 1004.8
20260505091027 71 158 13.0 26.0 0.00 0.00 0.00 81 1004.9
20260505090527 71 171 14.0 26.0 0.00 0.00 0.00 81 1004.9
20260505090054 71 180 13.0 26.0 0.00 0.00 0.00 81 1004.9
20260505085528 70 160 11.0 26.0 0.00 0.00 0.00 81 1005.0
20260505085027 70 170 13.0 24.0 0.00 0.00 0.00 81 1005.0
20260505084543 70 176 11.0 26.0 0.00 0.00 0.00 81 1005.1
20260505084027 70 360 11.0 30.0 0.00 0.00 0.00 81 1005.1
20260505083529 70 178 12.0 30.0 0.00 0.00 0.00 81 1005.1
20260505083047 70 153 9.0 24.0 0.00 0.00 0.00 81 1004.9
20260505082527 70 202 11.0 24.0 0.00 0.00 0.00 81 1005.0
20260505082029 70 360 10.0 24.0 0.00 0.00 0.00 80 1005.0
20260505081555 71 360 9.0 24.0 0.00 0.00 0.00 80 1005.0
20260505081028 71 149 8.0 20.0 0.00 0.00 0.00 80 1005.1
20260505080532 71 360 9.0 20.0 0.00 0.00 0.00 80 1005.0
20260505080048 71 135 7.0 22.0 0.00 0.00 0.00 80 1005.1
20260505075527 71 217 8.0 22.0 0.00 0.00 0.00 79 1005.2
20260505075029 71 186 9.0 21.0 0.00 0.00 0.00 79 1005.1
20260505074602 71 157 10.0 21.0 0.00 0.00 0.00 79 1005.3
20260505074028 71 204 13.0 21.0 0.00 0.00 0.00 78 1005.4
20260505073531 71 179 10.0 21.0 0.00 0.00 0.00 78 1005.4
20260505073044 72 155 10.0 21.0 0.00 0.00 0.00 78 1005.6
20260505072530 72 360 8.0 22.0 0.00 0.00 0.00 78 1005.9
20260505072028 72 360 9.0 22.0 0.00 0.00 0.00 78 1006.0
20260505071538 72 360 9.0 19.0 0.00 0.00 0.00 77 1006.0
20260505071028 72 208 7.0 21.0 0.00 0.00 0.00 77 1006.1
20260505070528 72 197 11.0 21.0 0.00 0.00 0.00 76 1006.1
20260505070048 72 180 10.0 24.0 0.00 0.00 0.00 76 1006.2
20260505065527 72 360 8.0 24.0 0.00 0.00 0.00 76 1006.2
20260505065027 72 204 13.0 23.0 0.00 0.00 0.00 76 1006.3
20260505064542 72 360 10.0 23.0 0.00 0.00 0.00 76 1006.3
20260505064029 72 144 6.0 21.0 0.00 0.00 0.00 75 1006.4
20260505063529 72 360 10.0 23.0 0.00 0.00 0.00 75 1006.4
20260505063044 72 153 11.0 23.0 0.00 0.00 0.00 75 1006.5
20260505062528 72 176 10.0 23.0 0.00 0.00 0.00 75 1006.6
20260505062027 72 360 10.0 22.0 0.00 0.00 0.00 75 1006.6
20260505061618 72 360 9.0 20.0 0.00 0.00 0.00 74 1006.5
20260505061029 72 198 10.0 23.0 0.00 0.00 0.00 74 1006.5
20260505060528 72 360 9.0 23.0 0.00 0.00 0.00 74 1006.5
20260505060052 72 175 10.0 22.0 0.00 0.00 0.00 74 1006.4
20260505055530 72 178 10.0 22.0 0.00 0.00 0.00 74 1006.4
20260505055031 72 360 8.0 20.0 0.00 0.00 0.00 73 1006.5
20260505054557 72 186 11.0 20.0 0.00 0.00 0.00 73 1006.6
20260505054027 72 171 8.0 19.0 0.00 0.00 0.00 73 1006.5
20260505053529 72 360 8.0 20.0 0.00 0.00 0.00 73 1006.6
20260505053045 73 184 8.0 22.0 0.00 0.00 0.00 72 1006.7
20260505052529 73 140 10.0 22.0 0.00 0.00 0.00 72 1006.8
20260505052030 73 172 7.0 18.0 0.00 0.00 0.00 72 1006.8
20260505051539 73 156 9.0 19.0 0.00 0.00 0.00 72 1006.8
20260505051030 73 360 9.0 20.0 0.00 0.00 0.00 72 1006.9
20260505050527 73 360 10.0 20.0 0.00 0.00 0.00 71 1006.9
20260505041542 74 360 9.0 27.0 0.00 0.00 0.00 70 1007.0
20260505041028 74 154 8.0 19.0 0.00 0.00 0.00 69 1007.1
20260505040530 74 194 8.0 20.0 0.00 0.00 0.00 69 1007.2
20260505040044 74 360 8.0 21.0 0.00 0.00 0.00 69 1007.2
20260505035530 74 360 8.0 21.0 0.00 0.00 0.00 69 1007.2
20260505035029 74 177 6.0 18.0 0.00 0.00 0.00 69 1007.1
20260505034545 74 360 10.0 18.0 0.00 0.00 0.00 69 1007.0
20260505034031 74 360 8.0 17.0 0.00 0.00 0.00 68 1007.0
20260505033531 74 360 9.0 22.0 0.00 0.00 0.00 68 1007.1
20260505033050 74 360 11.0 22.0 0.00 0.00 0.00 68 1007.1
20260505032527 74 169 11.0 21.0 0.00 0.00 0.00 68 1007.2
20260505032030 74 360 6.0 20.0 0.00 0.00 0.00 68 1007.2
20260505031542 74 184 10.0 24.0 0.00 0.00 0.00 68 1007.0
20260505031028 74 146 10.0 24.0 0.00 0.00 0.00 67 1007.2
20260505030528 74 360 10.0 24.0 0.00 0.00 0.00 67 1007.1
20260505030046 74 196 9.0 24.0 0.00 0.00 0.00 67 1007.1
20260505025530 75 172 10.0 20.0 0.00 0.00 0.00 67 1007.2
20260505025027 75 168 9.0 19.0 0.00 0.00 0.00 67 1007.3
20260505024557 75 176 10.0 18.0 0.00 0.00 0.00 67 1007.2
20260505024028 75 101 7.0 17.0 0.00 0.00 0.00 67 1007.1
20260505023528 75 161 8.0 25.0 0.00 0.00 0.00 66 1007.2
20260505023038 75 360 7.0 25.0 0.00 0.00 0.00 66 1007.1
20260505022528 75 136 9.0 24.0 0.00 0.00 0.00 66 1007.0
20260505022028 75 197 9.0 22.0 0.00 0.00 0.00 66 1006.9
20260505021602 75 360 9.0 22.0 0.00 0.00 0.00 66 1006.9
20260505021026 75 141 10.0 22.0 0.00 0.00 0.00 65 1006.8
20260505020527 75 169 10.0 20.0 0.00 0.00 0.00 65 1006.8
20260505020046 75 154 8.0 20.0 0.00 0.00 0.00 65 1006.8
20260505015530 75 360 6.0 20.0 0.00 0.00 0.00 65 1006.8
20260505015027 75 173 10.0 23.0 0.00 0.00 0.00 64 1006.9
20260505014545 76 122 8.0 23.0 0.00 0.00 0.00 64 1006.9